Location: Doverdale
(52.2833°N, 2.2000°W)
Time: 14:50:32
(UTC+00:00)

Cosmos 2278 - Pass Details

Date: 29 October 2020
Orbit: 841 x 851 km, 71.1° (Epoch: 28 November)

Event Time Altitude Azimuth Distance (km) Brightness Sun altitude
Rises 19:47:00 0° 212° (SSW) 3,400 7.1 -28.3°
Reaches altitude 10° 19:49:26 10° 214° (SSW) 2,467 6.3 -28.6°
Enters shadow 19:54:41 74° 249° (WSW) 882 3.7 -29.4°
